Overview Statistics Trail Chart Weather Telemetry Raw packets
 

This is the latest recevied weather packets stored in our database for station/object KF0WJA. If no packets are shown the sender has not sent any weather packets the latest 10 day(s).

<< 53 54 55 56 57 58 59 >>
Time Temp. Humidity Pressure Rain* Wind** Luminosity Snow
1788303058 36.67° C 32% 1016.2 hPa 0 mm - 291 W/m² -
1788302754 36.67° C 32% 1016.1 hPa 0 mm - 302 W/m² -
1788302450 36.67° C 31% 1016 hPa 0 mm - 306 W/m² -
1788302145 36.67° C 31% 1016 hPa 0 mm - 337 W/m² -
1788301841 36.67° C 30% 1016 hPa 0 mm - 356 W/m² -
1788301537 37.22° C 30% 1016.1 hPa 0 mm - 380 W/m² -
1788301232 37.22° C 31% 1016.2 hPa 0 mm - 386 W/m² -
1788300929 37.22° C 31% 1016.1 hPa 0 mm - 390 W/m² -
1788300624 37.22° C 30% 1016.1 hPa 0 mm - 399 W/m² -
1788300323 37.22° C 30% 1016.2 hPa 0 mm - 416 W/m² -
1788300022 37.22° C 30% 1016.2 hPa 0 mm - 445 W/m² -
1788299720 37.22° C 30% 1016.1 hPa 0 mm - 427 W/m² -
1788299421 37.22° C 29% 1016.1 hPa 0 mm - 440 W/m² -
1788299120 37.78° C 30% 1016 hPa 0 mm - 437 W/m² -
1788298814 37.78° C 30% 1016.3 hPa 0 mm - 451 W/m² -
1788298514 37.22° C 31% 1016.3 hPa 0 mm - 473 W/m² -
1788298208 37.78° C 29% 1016.5 hPa 0 mm - 439 W/m² -
1788297903 37.22° C 30% 1016.5 hPa 0 mm - 529 W/m² -
1788297599 37.78° C 30% 1016.5 hPa 0 mm - 540 W/m² -
1788297295 37.78° C 30% 1016.5 hPa 0 mm - 537 W/m² -
1788296991 37.78° C 30% 1016.5 hPa 0 mm - 201 W/m² -
1788296686 37.22° C 30% 1016.6 hPa 0 mm - 594 W/m² -
1788296382 38.33° C 30% 1016.6 hPa 0 mm - 178 W/m² -
1788296082 38.33° C 29% 1017 hPa 0 mm - 660 W/m² -
1788295777 38.89° C 29% 1016.6 hPa 0 mm - 670 W/m² -

* Rain latest hour (hover to see other rain measurements)
** Current wind speed in m/s (hover to see current wind gust speed)